Dewpoint
57 54 52 53 53 51 50 49 50 50 50 51 50 49 48 48 47 46 46 45 46 45
58 55 54 54 53 52 52 51 50 50 50 51 50 49 47 47 47 47 46 46 45 45
55 56 56 55 54 53 53 52 51 50 50 51 50 49 48 47 47 47 45 45 45 44
55 53 54 54 53 52 52 52 51 50 50 51 49 48 48 48 47 47 46 46 44 43
52 52 51 51 51 51 51 51 52 51 51 51 50 49 48 47 47 47 46 45 44 42
52 52 51 51 51 51 51 51 51 50 50 50 49 49 49 48 47 47 46 45 43 40
50 50 50 50 50 48 45 45 45 45 44 43 42 42 44 45 46 43 40 39 38 37
50 50 49 47 45 45 44 44 44 42 39 37 37 39 42 43 42 39 38 36 35 35
46 46 45 44 42 42 42 41 41 40 37 36 37 38 40 41 39 39 36 35 35 35
45 44 43 42 40 39 38 37 37 37 37 35 37 37 37 38 37 36 35 34 33 32
42 40 40 39 38 37 35 35 35 35 34 34 35 36 35 35 34 33 33 33 32 30
40 40 39 39 36 34 34 33 34 34 33 33 34 35 35 33 32 31 30 31 30 29
41 40 38 35 34 34 33 33 34 33 33 33 33 34 34 32 30 29 27 27 26 25
37 36 34 33 33 33 33 32 32 32 32 32 33 34 33 32 30 28 25 23 21 21
Wind_Speed
14 16 16 18 16 17 17 16 15 16 14 12 11 10 9 7 6 6 5 4 3 2
17 18 19 19 17 16 15 14 15 16 15 13 12 11 11 9 7 6 7 8 6 4
19 20 19 17 21 18 18 15 16 18 16 13 12 13 13 10 8 8 9 9 7 5
20 18 18 19 17 17 17 18 18 19 17 15 15 14 13 13 13 13 12 10 11 10
19 16 14 15 16 12 15 14 17 16 16 14 14 14 16 17 14 15 12 14 12 11
17 17 16 14 11 8 7 7 6 7 9 10 10 10 12 14 14 12 9 9 8 8
18 18 15 12 11 11 12 13 13 12 9 8 7 6 4 4 4 8 10 10 11 10
13 13 16 18 18 17 15 16 12 12 12 12 12 10 6 3 10 13 12 10 10 10
19 20 19 18 16 17 17 15 13 12 10 12 10 12 8 6 10 12 13 11 9 10
20 19 17 15 15 13 15 13 12 12 11 10 9 10 10 10 9 7 11 11 10 8
20 19 16 15 15 10 10 11 11 11 11 10 7 11 12 13 11 11 11 8 8 9
22 19 14 12 12 11 11 11 12 10 10 9 6 6 11 11 10 12 11 9 8 8
18 16 14 15 15 11 12 13 11 9 8 8 6 6 8 10 10 10 9 7 7 7
16 18 16 15 13 13 12 11 9 8 7 7 6 7 7 7 7 9 9 8 6 5
Wind_Direction
182 182 184 184 187 194 199 203 201 199 198 201 192 186 183 189 195 183 186 199 207 209
191 187 191 194 192 199 204 204 202 200 201 201 196 193 190 197 209 197 203 201 201 217
192 194 197 194 199 203 211 203 198 202 204 204 208 200 197 202 211 214 218 217 203 206
192 188 198 204 204 210 207 211 206 203 201 207 208 209 213 219 218 217 225 216 208 210
192 186 187 189 190 182 190 196 201 198 201 209 215 216 216 224 221 220 222 224 216 192
193 191 189 182 177 170 158 157 159 188 205 213 216 223 233 235 234 231 230 207 175 156
186 185 169 146 123 105 97 85 81 76 71 63 62 39 355 229 186 135 125 116 123 124
162 137 125 117 114 107 97 90 77 66 50 53 46 28 11 114 136 132 117 105 107 108
128 117 112 111 109 106 98 90 88 81 68 53 41 22 29 102 132 135 136 131 114 108
112 106 100 93 83 68 74 81 79 78 71 67 55 55 58 87 99 111 123 131 129 110
110 104 98 99 96 90 88 92 98 96 96 89 65 78 79 84 88 88 83 105 111 117
122 127 131 118 136 127 117 102 89 103 103 111 96 107 115 104 96 92 80 78 92 102
140 151 153 146 129 124 112 109 111 110 112 116 109 126 119 119 118 113 103 78 72 77
125 138 139 115 111 111 111 114 120 122 125 130 113 92 120 131 137 139 131 125 109 73